Location: Hope
(40.9110°N, 74.9680°W)
Time: 15:09:43
(UTC-05:00)

N. Korean satellite - Pass Details

Date: 27 January 2019
Orbit: 456 x 510 km, 97.2° (Epoch: 20 February)

Event Time Altitude Azimuth Distance (km) Brightness Sun altitude
Rises 18:34:30 0° 213° (SSW) 2,589 10.9 -15.9°
Reaches altitude 10° 18:37:43 10° 245° (WSW) 1,720 10.6 -16.5°
Maximum altitude 18:39:15 12° 269° (W) 1,592 10.4 -16.8°
Drops below altitude 10° 18:40:48 10° 294° (WNW) 1,732 10.2 -17.1°
Sets 18:44:05 0° 325° (NW) 2,627 10.6 -17.7°
